Weather History for KCFE - November, 2013

Change the Weather History Date:

Saturday, November 9, 2013

  Actual Average (KSTC) Record (KSTC)
Temperature  
Mean Temperature 38 °F 34 °F  
Max Temperature 41 °F 43 °F 68 °F (1999)
Min Temperature 34 °F 26 °F 0 °F (1979)
Degree Days  
Heating Degree Days 28 31  
Month to date heating degree days 256  
Since 1 July heating degree days 1141  
Cooling Degree Days 0 0  
Month to date cooling degree days 0  
Year to date cooling degree days 465  
Moisture  
Dew Point 31 °F    
Average Humidity 73    
Maximum Humidity 91    
Minimum Humidity 59    
Precipitation  
Precipitation 0.02 in 0.05 in 2.02 in (1977)
Month to date precipitation 0.45  
Year to date precipitation 25.98  
Snow  
Snow 0.00 in 0.20 in 2.80 in (1983)
Month to date snowfall 1.5  
Since 1 July snowfall 2.3  
Since 1 September snowfall 2.3  
Snow Depth -    
Sea Level Pressure  
Sea Level Pressure 29.93 in    
Wind  
Wind Speed 13 mph (West)    
Max Wind Speed 25 mph    
Max Gust Speed 37 mph    
Visibility 10 miles    
Events      
T = Trace of Precipitation, MM = Missing Value Source: NWS Daily Summary

Daily Weather History Graph

Daily Weather History Graph

Search for Another Location

Airport or City:

Trip Planner

Search our weather history database for the weather conditions in past years. The results will help you decide how hot, cold, wet, or windy it might be!

Date:

Astronomy

Nov. 09, 2013 Rise Set
Actual Time 7:05 AM CST 4:52 PM CST
Civil Twilight 6:34 AM CST 5:23 PM CST
Nautical Twilight 5:58 AM CST 5:58 PM CST
Astronomical Twilight 5:24 AM CST 6:33 PM CST
Moon 12:40 PM CST (11/9) 11:27 PM CST (11/9)
Length of Visible Light 10h 49m
Length of Day
9h 46m
Waxing Crescent, 44% of the Moon is Illuminated
Nov 9
Waxing Crescent
Nov 9
First Quarter
Nov 17
Full
Nov 25
Last Quarter
Dec 2
New

Hourly Weather History & Observations

Time (CST) Temp. Windchill Dew Point Humidity Pressure Visibility Wind Dir Wind Speed Gust Speed Precip Events Conditions
12:16 AM 39.6 °F 34.7 °F 37.0 °F 91% 29.63 in 10.0 mi WSW 6.9 mph - N/A   Overcast
12:36 AM 40.3 °F 34.4 °F 37.4 °F 89% 29.64 in 10.0 mi WSW 9.2 mph - N/A   Overcast
12:55 AM 40.1 °F 34.1 °F 37.0 °F 89% 29.64 in 10.0 mi WSW 9.2 mph 16.1 mph N/A   Overcast
1:16 AM 40.3 °F 34.4 °F 36.9 °F 88% 29.64 in 10.0 mi WSW 9.2 mph - N/A   Overcast
1:36 AM 40.8 °F 35.0 °F 36.5 °F 85% 29.66 in 10.0 mi WSW 9.2 mph - N/A   Overcast
1:56 AM 40.8 °F 34.1 °F 35.8 °F 82% 29.67 in 10.0 mi WSW 11.5 mph 18.4 mph N/A   Overcast
2:16 AM 40.6 °F 34.3 °F 35.6 °F 82% 29.68 in 10.0 mi WSW 10.4 mph 18.4 mph N/A   Overcast
2:36 AM 40.1 °F 35.3 °F 35.1 °F 82% 29.69 in 10.0 mi WSW 6.9 mph - N/A   Overcast
2:56 AM 39.6 °F 33.0 °F 35.2 °F 85% 29.69 in 10.0 mi WSW 10.4 mph - N/A   Overcast
3:16 AM 39.2 °F 34.2 °F 34.9 °F 84% 29.69 in 10.0 mi WSW 6.9 mph - N/A   Overcast
3:36 AM 39.2 °F 33.6 °F 34.7 °F 84% 29.70 in 10.0 mi WSW 8.1 mph - N/A   Overcast
3:56 AM 39.6 °F 33.5 °F 34.9 °F 83% 29.71 in 10.0 mi WSW 9.2 mph - N/A   Overcast
4:16 AM 40.1 °F 33.2 °F 35.2 °F 83% 29.71 in 10.0 mi West 11.5 mph - N/A   Overcast
4:36 AM 41.0 °F 33.9 °F 35.6 °F 81% 29.71 in 10.0 mi West 12.7 mph - N/A   Overcast
4:56 AM 41.4 °F 33.6 °F 35.6 °F 80% 29.72 in 10.0 mi West 15.0 mph 21.9 mph N/A   Overcast
5:16 AM 41.4 °F 33.0 °F 35.6 °F 80% 29.73 in 10.0 mi West 17.3 mph 23.0 mph N/A   Overcast
5:36 AM 41.5 °F 33.8 °F 36.0 °F 81% 29.73 in 10.0 mi West 15.0 mph 18.4 mph N/A   Overcast
5:56 AM 41.9 °F 34.6 °F 36.5 °F 81% 29.74 in 10.0 mi West 13.8 mph 20.7 mph N/A   Overcast
6:16 AM 41.9 °F 35.9 °F 36.7 °F 82% 29.76 in 10.0 mi West 10.4 mph 18.4 mph N/A   Overcast
6:36 AM 41.9 °F 33.4 °F 36.5 °F 81% 29.77 in 10.0 mi West 18.4 mph 21.9 mph N/A   Overcast
6:56 AM 41.9 °F 33.4 °F 35.2 °F 77% 29.78 in 10.0 mi West 18.4 mph 26.5 mph N/A   Overcast
7:16 AM 41.4 °F 33.0 °F 34.7 °F 77% 29.79 in 10.0 mi West 17.3 mph 26.5 mph N/A   Overcast
7:36 AM 41.4 °F 32.4 °F 34.0 °F 75% 29.81 in 10.0 mi West 19.6 mph 28.8 mph N/A   Overcast
7:56 AM 41.4 °F 33.3 °F 34.5 °F 77% 29.82 in 10.0 mi West 16.1 mph 24.2 mph N/A   Overcast
8:16 AM 41.0 °F 32.8 °F 35.2 °F 80% 29.83 in 10.0 mi West 16.1 mph 24.2 mph N/A   Overcast
8:36 AM 41.4 °F 33.6 °F 35.1 °F 78% 29.84 in 10.0 mi West 15.0 mph 21.9 mph N/A   Overcast
8:56 AM 41.4 °F 33.0 °F 35.2 °F 79% 29.84 in 10.0 mi West 17.3 mph 21.9 mph N/A   Overcast
9:16 AM 41.7 °F 33.4 °F 33.4 °F 72% 29.86 in 10.0 mi West 17.3 mph 28.8 mph N/A   Overcast
9:35 AM 41.9 °F 34.0 °F 32.7 °F 70% 29.87 in 10.0 mi West 16.1 mph 31.1 mph N/A   Overcast
9:56 AM 41.4 °F 33.0 °F 33.6 °F 74% 29.88 in 10.0 mi West 17.3 mph 26.5 mph N/A   Overcast
10:16 AM 41.0 °F 34.7 °F 34.7 °F 78% 29.89 in 10.0 mi West 10.4 mph 23.0 mph N/A   Overcast
10:35 AM 41.0 °F 32.5 °F 34.0 °F 76% 29.91 in 10.0 mi West 17.3 mph 23.0 mph N/A   Overcast
10:56 AM 41.0 °F 32.5 °F 33.3 °F 74% 29.92 in 10.0 mi West 17.3 mph 25.3 mph N/A   Overcast
11:16 AM 40.6 °F 30.9 °F 32.4 °F 72% 29.93 in 10.0 mi West 21.9 mph 28.8 mph N/A   Overcast
11:35 AM 40.6 °F 31.2 °F 32.0 °F 71% 29.94 in 10.0 mi West 20.7 mph 26.5 mph N/A   Overcast
11:56 AM 40.1 °F 29.5 °F 30.7 °F 69% 29.95 in 10.0 mi West 25.3 mph 32.2 mph N/A   Overcast
12:16 PM 39.6 °F 29.2 °F 29.5 °F 67% 29.95 in 10.0 mi West 23.0 mph 33.4 mph N/A   Overcast
12:35 PM 39.2 °F 29.6 °F 28.4 °F 65% 29.96 in 10.0 mi West 19.6 mph 31.1 mph N/A   Overcast
12:56 PM 39.2 °F 29.6 °F 27.9 °F 64% 29.96 in 10.0 mi West 19.6 mph 27.6 mph N/A   Overcast
1:16 PM 39.2 °F 29.6 °F 28.2 °F 65% 29.96 in 10.0 mi West 19.6 mph 28.8 mph N/A   Overcast
1:35 PM 39.2 °F 29.6 °F 28.2 °F 65% 29.97 in 10.0 mi West 19.6 mph 28.8 mph N/A   Overcast
1:56 PM 39.2 °F 30.5 °F 28.9 °F 67% 29.98 in 10.0 mi West 16.1 mph 23.0 mph N/A   Overcast
2:16 PM 39.2 °F 32.0 °F 28.9 °F 67% 29.99 in 10.0 mi West 11.5 mph 24.2 mph N/A   Overcast
2:35 PM 38.8 °F 30.0 °F 28.4 °F 66% 30.00 in 10.0 mi West 16.1 mph 25.3 mph N/A   Overcast
2:56 PM 39.2 °F 29.8 °F 26.8 °F 61% 30.01 in 10.0 mi West 18.4 mph 27.6 mph N/A   Overcast
3:16 PM 39.2 °F 30.8 °F 26.6 °F 61% 30.01 in 10.0 mi West 15.0 mph 24.2 mph N/A   Overcast
3:35 PM 38.7 °F 31.4 °F 26.6 °F 62% 30.01 in 10.0 mi West 11.5 mph 20.7 mph N/A   Mostly Cloudy
3:56 PM 39.2 °F 30.8 °F 27.1 °F 62% 30.02 in 10.0 mi West 15.0 mph 21.9 mph N/A   Overcast
4:16 PM 39.2 °F 30.5 °F 27.7 °F 63% 30.03 in 10.0 mi West 16.1 mph 19.6 mph N/A   Overcast
4:35 PM 39.4 °F 29.0 °F 26.2 °F 59% 30.04 in 10.0 mi West 23.0 mph 36.8 mph N/A   Overcast
4:56 PM 38.5 °F 28.6 °F 26.1 °F 61% 30.05 in 10.0 mi West 19.6 mph 29.9 mph N/A   Overcast
5:16 PM 37.4 °F 27.5 °F 24.8 °F 60% 30.06 in 10.0 mi West 18.4 mph 29.9 mph N/A   Scattered Clouds
5:35 PM 37.4 °F 28.9 °F 25.3 °F 62% 30.07 in 10.0 mi West 13.8 mph 25.3 mph N/A   Mostly Cloudy
5:56 PM 37.4 °F 27.8 °F 25.7 °F 63% 30.09 in 10.0 mi West 17.3 mph 25.3 mph N/A   Overcast
6:16 PM 36.7 °F 26.3 °F 25.9 °F 65% 30.10 in 10.0 mi West 19.6 mph 29.9 mph N/A   Overcast
6:35 PM 36.5 °F 26.7 °F 25.7 °F 65% 30.11 in 10.0 mi West 17.3 mph 25.3 mph N/A   Overcast
6:56 PM 36.1 °F 26.5 °F 25.7 °F 66% 30.11 in 10.0 mi West 16.1 mph 23.0 mph N/A   Mostly Cloudy
7:15 PM 36.5 °F 25.7 °F 26.1 °F 66% 30.12 in 10.0 mi West 20.7 mph 27.6 mph N/A   Overcast
7:36 PM 35.6 °F 26.6 °F 26.1 °F 68% 30.13 in 10.0 mi WNW 13.8 mph 24.2 mph N/A   Mostly Cloudy
7:56 PM 35.2 °F 25.8 °F 26.2 °F 70% 30.13 in 10.0 mi West 15.0 mph 23.0 mph N/A   Clear
8:15 PM 34.7 °F 26.4 °F 26.6 °F 72% 30.14 in 10.0 mi West 11.5 mph 20.7 mph N/A   Scattered Clouds
8:36 PM 34.7 °F 25.1 °F 27.0 °F 73% 30.15 in 10.0 mi West 15.0 mph 18.4 mph N/A   Scattered Clouds
8:56 PM 34.7 °F 25.1 °F 27.1 °F 74% 30.16 in 10.0 mi West 15.0 mph 20.7 mph N/A   Mostly Cloudy
9:15 PM 35.6 °F 27.5 °F 27.5 °F 72% 30.16 in 10.0 mi West 11.5 mph - N/A   Overcast
9:36 PM 35.6 °F 27.5 °F 27.5 °F 72% 30.17 in 10.0 mi West 11.5 mph 21.9 mph N/A   Overcast
9:56 PM 35.8 °F 27.3 °F 27.5 °F 72% 30.18 in 10.0 mi West 12.7 mph 21.9 mph N/A   Overcast
10:15 PM 36.1 °F 28.7 °F 27.7 °F 71% 30.19 in 10.0 mi West 10.4 mph - N/A   Overcast
10:36 PM 36.0 °F 26.7 °F 27.9 °F 72% 30.19 in 10.0 mi West 15.0 mph - N/A   Overcast
10:56 PM 36.1 °F 26.5 °F 27.9 °F 72% 30.20 in 10.0 mi West 16.1 mph 23.0 mph N/A   Overcast
11:15 PM 36.5 °F 28.2 °F 28.0 °F 71% 30.20 in 10.0 mi West 12.7 mph 20.7 mph N/A   Overcast
11:36 PM 36.5 °F 29.2 °F 28.2 °F 72% 30.21 in 10.0 mi West 10.4 mph 18.4 mph N/A   Overcast
11:55 PM 36.5 °F 28.7 °F 28.2 °F 72% 30.21 in 10.0 mi WNW 11.5 mph 17.3 mph N/A   Overcast